ZIYUAN 3-2 (ZY 3-2) (41556 NORAD) Tracking and Keplerian Element Data

This shows tracking and keplerian element data for the satellite.

Feedback or suggestion? Click here.




ElementValue
Catalog41556
NameZIYUAN 3-2 (ZY 3-2)
Epoch Orbit29572
Epoch Day269.18169531
Epoch Year2021
RAAN338.693
Inclination97.3175
Eccentricity0.0002429
Argument of Perigee146.9512
Mean Anonmoly297.3474
Mean Motion15.21379329
Decay Rate1.435E-05
L11 41556U 16033A 21269.18169531 .00001435 00000-0 67000-4 0 9998
L22 41556 97.3175 338.6930 0002429 146.9512 297.3474 15.21379329295725

Live tracking and technical data element details for ZIYUAN 3-2 (ZY 3-2) (NORAD 41556). ZIYUAN 3-2 (ZY 3-2) can be tracked NOW for your location showing map with azimuth and elevation plus other details from your city location.

Track the satellite on the map from your city or location and see movement details for azimuth, elevation, latitude, longitude, range, height, and movement on the map or in text.







IsCatalogInMostPopularTable: catalog: 41556, numindb: 537
Update: records affected: 1



GetName: 41556 ZIYUAN 3-2 (ZY 3-2)

Hit Count: updated at: Mon, 27 Sep 2021 01:48:05 GMT